ZHONGXING-4A

Last updated on Sun Sep 22 2024 00:02:03 GMT+0000 (Coordinated Universal Time)

1 60606U 24151A 24265.54797720 -.00000374 00000+0 00000+0 0 9994 2 60606 2.9566 278.1318 0002592 346.3642 52.0057 1.00271894 409
UTC large
Height (km)
Speed (km/s)
/
Latitude / Longitude
Inclination (degrees)
Orbital Period (minutes)
Azimuth
Elevation
Range (km)
Doppler Factor

Next 0 passes for location: London (51.5072 / 0.1276)

Sorry there are no passes over London.